Location: Bosdarros
(43.2167°N, 0.3667°W)
Time: 15:14:24
(UTC+00:00)

SL-16 R/B - Pass Details

Date: 22 April 2021
Orbit: 840 x 849 km, 71.0° (Epoch: 12 May)

Event Time Altitude Azimuth Distance (km) Brightness Sun altitude
Rises 21:15:56 0° 334° (NNW) 3,420 6.6 -22.9°
Reaches altitude 10° 21:18:23 10° 335° (NNW) 2,480 5.6 -23.2°
Maximum altitude 21:24:06 89° 248° (WSW) 853 2.1 -23.9°
Enters shadow 21:25:16 58° 159° (SSE) 978 2.2 -24.0°
